User: anonymous
Location: Oshawa
(43.9000°N, 78.8670°W)
Time: 12:56:04
(UTC-04:00)
Language:

Explorer 11/Cluster Stage 4 - Orbit

View from above orbital plane
View from above orbital plane
View from above satellite
View from above satellite

Ground track
Ground track

The orbit data is extracted from the following two-line orbital elements,

1 00107U 61013A   14237.39760951  .00001041  00000-0  12456-3 0  1175
2 00107 028.7889 274.0347 0562370 147.5157 301.0737 14.05078606666312
Epoch (UTC): 25 August 2014 09:32:33
Eccentricity: 0.0562370
inclination: 28.7889°
perigee height: 468 km
apogee height: 1284 km
right ascension of ascending node: 274.0347°
argument of perigee: 147.5157°
revolutions per day: 14.05078606
mean anomaly at epoch: 301.0737°
orbit number at epoch: 66631

The dashed part of the orbit path shows where the satellite is in the earth's shadow,  

DLR